Location: Oshawa
(43.9000°N, 78.8670°W)
Time: 22:22:43
(UTC-04:00)

Cosmos 839 Rocket - Visible Passes

Search period start: 26 May 2017 00:00
Search period end: 05 June 2017 00:00
Orbit: 968 x 2084 km, 65.9° (Epoch: 26 May)

Date Brightness Start Highest point End Pass type
(mag) Time Alt. Az. Time Alt. Az. Time Alt. Az.
26 May 4.4 22:27:41 10° NW 22:34:15 80° WSW 22:39:48 21° SSE visible
27 May 6.4 00:30:10 10° WNW 00:33:34 14° WSW 00:36:25 11° SW visible
27 May 4.4 21:45:49 10° NNW 21:52:18 71° NE 21:59:18 13° SE visible
27 May 5.9 23:46:44 10° WNW 23:51:56 23° WSW 23:55:56 16° SSW visible
28 May 5.4 23:04:09 10° NW 23:10:12 36° WSW 23:15:29 17° SSW visible
29 May 4.9 22:21:57 10° NW 22:28:23 55° WSW 22:35:04 15° S visible
30 May 4.5 21:39:56 10° NW 21:46:31 81° WSW 21:54:35 10° SSE visible
30 May 6.5 23:42:15 10° WNW 23:45:52 15° WSW 23:49:49 10° SW visible
31 May 6.0 22:58:55 10° WNW 23:04:13 24° WSW 23:10:22 10° SSW visible
01 Jun 5.5 22:16:22 10° NW 22:22:28 37° WSW 22:29:49 10° S visible
02 Jun 5.0 21:34:09 10° NW 21:40:40 56° WSW 21:48:37 10° SSE visible
03 Jun 6.6 22:54:21 10° WNW 22:58:09 15° WSW 23:02:20 10° SW visible
04 Jun 6.2 22:11:05 10° WNW 22:16:30 25° WSW 22:22:48 10° SSW visible
